This is the latest recevied weather packets stored in our database for station/object K9MWD. If no packets are shown the sender has not sent any weather packets the latest 10 day(s).
| Time | Temp. | Humidity | Pressure | Rain* | Wind** | Luminosity | Snow |
|---|---|---|---|---|---|---|---|
| 1777640240 | 13.89° C | 87% | 1016.9 hPa | 0 mm | - | 20 W/m² | - |
| 1777639936 | 13.89° C | 87% | 1016.9 hPa | 0 mm | - | 15 W/m² | - |
| 1777639633 | 13.89° C | 87% | 1016.7 hPa | 0 mm | - | 12 W/m² | - |
| 1777639331 | 13.89° C | 87% | 1016.5 hPa | 0 mm | - | 14 W/m² | - |
| 1777639026 | 13.89° C | 87% | 1016.5 hPa | 0 mm | - | 12 W/m² | - |
| 1777638723 | 13.89° C | 87% | 1016.4 hPa | 0 mm | - | 11 W/m² | - |
| 1777638419 | 13.89° C | 87% | 1016.1 hPa | 0 mm | - | 6 W/m² | - |
| 1777638115 | 13.89° C | 87% | 1016.1 hPa | 0 mm | - | 5 W/m² | - |
| 1777637812 | 13.89° C | 87% | 1016.3 hPa | 0 mm | - | 4 W/m² | - |
| 1777637508 | 13.89° C | 87% | 1015.8 hPa | 0 mm | - | 3 W/m² | - |
| 1777637206 | 13.89° C | 87% | 1015.5 hPa | 0 mm | - | 3 W/m² | - |
| 1777636903 | 13.89° C | 87% | 1015.4 hPa | 0 mm | - | 2 W/m² | - |
| 1777636598 | 13.89° C | 87% | 1015.5 hPa | 0 mm | - | 1 W/m² | - |
| 1777636294 | 13.89° C | 87% | 1015.1 hPa | 0 mm | - | 1 W/m² | - |
| 1777635989 | 13.89° C | 87% | 1015.3 hPa | 0 mm | - | 1 W/m² | - |
| 1777635685 | 13.89° C | 87% | 1015.2 hPa | 0 mm | - | 0 W/m² | - |
| 1777635382 | 13.89° C | 87% | 1015.2 hPa | 0 mm | - | 0 W/m² | - |
| 1777635079 | 13.89° C | 87% | 1015.2 hPa | 0 mm | - | 0 W/m² | - |
| 1777634775 | 13.89° C | 87% | 1015.2 hPa | 0 mm | - | 0 W/m² | - |
| 1777634473 | 13.89° C | 87% | 1015 hPa | 0 mm | - | 0 W/m² | - |
| 1777634169 | 13.89° C | 87% | 1015.3 hPa | 0 mm | - | 0 W/m² | - |
| 1777633866 | 13.89° C | 87% | 1015.2 hPa | 0 mm | - | 0 W/m² | - |
| 1777633564 | 13.89° C | 87% | 1015.6 hPa | 0 mm | - | 0 W/m² | - |
| 1777633261 | 13.89° C | 87% | 1015.7 hPa | 0 mm | - | 0 W/m² | - |
| 1777632958 | 13.89° C | 88% | 1015.3 hPa | 0 mm | - | 0 W/m² | - |
* Rain latest hour (hover to see other rain measurements)
** Current wind speed in m/s (hover to see current wind gust speed)